カタログに戻る

STARLINK-35838

運用中通信VLEO
NORAD 66836·PAYLOAD·🇺🇸 United States

打ち上げ Dec 2, 2025 から Vandenberg Space Force Base

Loading…

次のパス (今後24時間)

TLE

最新Source: CelesTrak SupGP

元期: Sep 15, 2026, 02:59 UTC

1 66836C 25280R   26258.12479167 -.00040168  00000+0 -33652-2 0  2585
2 66836  70.0001 216.7324 0003667 259.5439  99.5359 14.98361757    15

AllMySatでSTARLINK-35838をリアルタイム追跡

Download on the App Store